Stations météo

réclame
Mon MeteoGroup
De Bilt, Pays-Bas (6260): Température de l'air & dewpoint: 11.07.2018 13:00:00 - 17.07.2018 13:00:00 (CEST)De Bilt, Pays-Bas (6260): Température de l'air 5cm & Température de l'air -5cm: 11.07.2018 13:00:00 - 17.07.2018 13:00:00 (CEST)De Bilt, Pays-Bas (6260): Température de l'air -20cm & Température de l'air -100cm: 11.07.2018 13:00:00 - 17.07.2018 13:00:00 (CEST)De Bilt, Pays-Bas (6260): Vitesse du vent & gusts: 11.07.2018 13:00:00 - 17.07.2018 13:00:00 (CEST)De Bilt, Pays-Bas (6260): Direction du vent: 11.07.2018 13:00:00 - 17.07.2018 13:00:00 (CEST)De Bilt, Pays-Bas (6260): reduced air pressure: 11.07.2018 13:00:00 - 17.07.2018 13:00:00 (CEST)De Bilt, Pays-Bas (6260): visibility: 11.07.2018 13:00:00 - 17.07.2018 13:00:00 (CEST)De Bilt, Pays-Bas (6260): Quantités de précipitations: 11.07.2018 13:00:00 - 17.07.2018 13:00:00 (CEST)
Date & Time tt [°C] td [°C] tt 5cm [°C] tt -5cm [°C] tt -20cm [°C] tt -100cm [°C] ff [km/h] ff [knt] fx [km/h] fx [knt] dd ppp [hPa] vv [km] rr [mm]
17.07.2018 13:00:00 24,1 14,4 26,0 22,5 19,0 16,3 14 8 29 16 WSW 1014,9 35 0,0
17.07.2018 12:00:00 24,0 14,9 27,1 21,6 19,0 16,3 18 10 29 16 WSW 1014,6 30 0,0
17.07.2018 11:00:00 24,4 16,9 26,5 20,7 19,0 16,3 11 6 29 16 SW 1014,1 21 0,0
17.07.2018 10:00:00 22,4 15,1 24,7 19,8 19,1 16,3 11 6 22 12 SW 1013,9 29 0,0
17.07.2018 09:00:00 21,8 14,0 23,0 19,2 19,2 16,3 11 6 18 10 WSW 1013,4 31 0,0
17.07.2018 08:00:00 20,8 13,9 21,0 18,9 19,3 16,3 11 6 22 12 WSW 1013,4 43 0,0
17.07.2018 07:00:00 17,4 14,8 15,2 18,9 19,4 16,3 7 4 11 6 SSW 1013,1 40 0,0
17.07.2018 06:00:00 16,3 14,4 14,4 19,2 19,5 16,3 7 4 7 4 E 1012,8 39 0,0
17.07.2018 05:00:00 16,4 13,8 14,5 19,6 19,6 16,3 7 4 11 6 SW 1012,8 47 0,0
17.07.2018 04:00:00 17,9 14,2 16,4 19,9 19,7 16,3 4 2 7 4 SSE 1012,9 48 0,0
17.07.2018 03:00:00 18,8 13,7 16,6 20,4 19,8 16,3 7 4 7 4 ENE 1012,5 50 0,0
17.07.2018 02:00:00 21,0 13,0 19,7 20,6 19,8 16,3 4 2 11 6 NNE 1013,0 49 0,0
17.07.2018 01:00:00 21,3 13,9 19,9 20,9 19,9 16,3 7 4 18 10 S 1013,6 47 0,0
17.07.2018 00:00:00 21,9 14,2 21,4 21,2 19,9 16,3 7 4 14 8 WSW 1013,5 46 0,0
16.07.2018 23:00:00 18,4 13,4 15,7 21,9 19,9 16,3 4 2 4 2 ENE 1012,8 48 0,0
16.07.2018 22:00:00 22,2 11,9 19,4 22,7 19,9 16,2 7 4 11 6 NNE 1012,6 46 0,0
16.07.2018 21:00:00 26,1 10,2 25,0 23,5 19,8 16,2 11 6 18 10 NNE 1012,2 45 0,0
16.07.2018 20:00:00 27,4 9,0 27,6 24,2 19,7 16,2 11 6 18 10 NE 1011,9 47 0,0
16.07.2018 19:00:00 28,0 8,4 29,1 24,7 19,5 16,2 11 6 18 10 NNE 1011,7 44 0,0
16.07.2018 18:00:00 27,8 10,4 29,0 25,2 19,3 16,2 11 6 22 12 NE 1012,0 44 0,0
16.07.2018 17:00:00 28,7 9,6 30,9 25,3 19,1 16,2 11 6 25 14 NW 1012,1 43 0,0
16.07.2018 16:00:00 28,7 9,5 30,7 25,2 18,9 16,2 7 4 22 12 NNW 1012,4 47 0,0
16.07.2018 15:00:00 29,3 10,4 32,3 24,5 18,7 16,2 7 4 18 10 N 1012,8 38 0,0
16.07.2018 14:00:00 28,6 9,0 31,0 23,6 18,6 16,2 7 4 14 8 SSW 1013,3 39 0,0
16.07.2018 13:00:00 28,1 10,6 30,4 22,9 18,5 16,2 7 4 14 8 N 1013,6 40 0,0
16.07.2018 12:00:00 27,5 10,5 30,3 21,3 18,5 16,2 4 2 14 8 S 1013,8 32 0,0
16.07.2018 11:00:00 25,5 11,0 28,4 20,0 18,5 16,2 7 4 18 10 S 1014,1 38 0,0
16.07.2018 10:00:00 23,9 11,8 26,2 18,9 18,6 16,2 11 6 14 8 SSE 1014,4 43 0,0
16.07.2018 09:00:00 22,2 12,5 23,1 17,9 18,7 16,2 7 4 11 6 SSE 1014,5 41 0,0
16.07.2018 08:00:00 19,9 12,3 19,6 17,3 18,8 16,2 4 2 7 4 ESE 1014,6 38 0,0
16.07.2018 07:00:00 15,4 12,0 13,4 17,2 19,0 16,2 4 2 4 2 E 1014,6 41 0,0
16.07.2018 06:00:00 11,5 11,0 9,3 17,5 19,1 16,2 4 2 4 2 E 1014,5 39 0,0
16.07.2018 05:00:00 12,1 10,8 9,5 17,9 19,3 16,2 4 2 7 4 E 1014,6 37 0,0
16.07.2018 04:00:00 13,5 11,2 9,8 18,4 19,4 16,2 7 4 7 4 E 1014,7 49 0,0
16.07.2018 03:00:00 14,1 11,8 10,3 18,9 19,5 16,2 7 4 11 6 E 1015,0 48 0,0
16.07.2018 02:00:00 14,5 12,9 11,1 19,5 19,6 16,2 7 4 11 6 E 1015,2 48 0,0
16.07.2018 01:00:00 14,7 13,6 12,0 20,1 19,7 16,2 4 2 7 4 NE 1015,3 50 0,0
16.07.2018 00:00:00 15,9 14,2 13,4 20,9 19,7 16,2 4 2 4 2 NNE 1015,4 46 0,0
15.07.2018 23:00:00 19,3 14,9 16,8 21,7 19,7 16,2 4 2 11 6 NNE 1015,5 50 0,0
15.07.2018 22:00:00 22,7 14,4 21,3 22,3 19,7 16,2 11 6 18 10 NNE 1015,2 48 0,0
15.07.2018 21:00:00 24,8 12,9 23,8 23,0 19,6 16,2 7 4 25 14 NE 1014,7 47 0,0
15.07.2018 20:00:00 26,4 9,6 26,5 23,8 19,5 16,2 18 10 25 14 NE 1014,5 44 0,0
15.07.2018 19:00:00 27,2 10,4 28,5 24,4 19,3 16,2 14 8 25 14 NE 1014,6 26 0,0
15.07.2018 18:00:00 27,9 9,6 27,9 24,9 19,1 16,2 7 4 25 14 NNE 1014,9 44 0,0
15.07.2018 17:00:00 27,4 10,2 28,5 25,2 18,9 16,2 11 6 22 12 NE 1015,3 47 0,0
15.07.2018 16:00:00 27,7 10,5 27,1 25,1 18,7 16,1 7 4 25 14 N 1015,6 40 0,0
15.07.2018 15:00:00 27,0 10,1 28,9 24,6 18,5 16,1 11 6 18 10 ENE 1016,3 48 0,0
15.07.2018 14:00:00 25,9 10,8 29,1 23,7 18,3 16,1 11 6 14 8 NE 1016,9 40 0,0
15.07.2018 13:00:00 26,1 11,6 29,3 22,3 18,3 16,1 7 4 22 12 E 1017,5 40 0,0
15.07.2018 12:00:00 24,7 10,5 28,2 20,8 18,2 16,1 7 4 14 8 NE 1017,8 35 0,0
15.07.2018 11:00:00 23,8 10,8 26,6 19,6 18,3 16,1 7 4 14 8 SE 1018,1 47 0,0
15.07.2018 10:00:00 21,6 11,4 24,5 18,5 18,3 16,1 4 2 11 6 ESE 1018,3 45 0,0
15.07.2018 09:00:00 19,7 11,9 21,2 17,5 18,5 16,1 7 4 11 6 ESE 1018,4 29 0,0
15.07.2018 08:00:00 17,1 12,4 17,6 17,0 18,6 16,1 4 2 7 4 E 1018,5 41 0,0
15.07.2018 07:00:00 14,2 11,4 12,7 16,8 18,7 16,1 7 4 7 4 ENE 1018,3 46 0,0
15.07.2018 06:00:00 10,7 10,1 8,1 17,2 18,9 16,1 4 2 7 4 E 1018,3 44 0,0
15.07.2018 05:00:00 11,7 10,6 8,6 17,7 19,0 16,1 7 4 7 4 ENE 1018,5 48 0,0
15.07.2018 04:00:00 13,5 10,9 10,5 18,1 19,1 16,1 4 2 11 6 ENE 1018,7 50 0,0
15.07.2018 03:00:00 14,1 10,9 10,4 18,7 19,2 16,1 7 4 11 6 E 1018,9 50 0,0
15.07.2018 02:00:00 14,8 11,7 12,4 19,2 19,3 16,1 7 4 11 6 ENE 1019,2 50 0,0
15.07.2018 01:00:00 15,8 12,7 14,2 19,8 19,4 16,1 7 4 14 8 NE 1019,4 50 0,0
15.07.2018 00:00:00 17,0 14,2 15,6 20,4 19,4 16,1 7 4 14 8 NNE 1019,3 49 0,0
14.07.2018 23:00:00 18,0 14,6 16,8 21,0 19,4 16,1 7 4 14 8 NNE 1019,3 50 0,0
14.07.2018 22:00:00 19,1 14,0 18,1 21,7 19,4 16,1 11 6 22 12 NNE 1019,2 45 0,0
14.07.2018 21:00:00 20,5 13,5 20,1 22,4 19,3 16,1 14 8 22 12 NNE 1019,1 49 0,0
14.07.2018 20:00:00 22,1 13,0 22,5 23,1 19,2 16,1 14 8 22 12 NNE 1019,1 43 0,0
14.07.2018 19:00:00 23,2 11,8 24,5 23,7 19,0 16,1 14 8 22 12 NE 1019,2 38 0,0
14.07.2018 18:00:00 24,4 11,0 26,8 23,9 18,8 16,1 11 6 18 10 N 1019,4 44 0,0
14.07.2018 17:00:00 24,0 10,5 26,7 24,1 18,6 16,1 14 8 22 12 NE 1019,4 41 0,0
14.07.2018 16:00:00 23,9 10,6 26,8 23,8 18,5 16,1 14 8 29 16 NW 1019,8 40 0,0
14.07.2018 15:00:00 23,7 11,7 27,1 23,3 18,3 16,1 11 6 22 12 N 1020,2 43 0,0
14.07.2018 14:00:00 22,8 10,7 26,4 22,4 18,2 16,1 11 6 22 12 NNW 1020,7 38 0,0
14.07.2018 13:00:00 22,4 11,3 25,3 21,2 18,1 16,1 7 4 18 10 NNW 1021,0 33 0,0
14.07.2018 12:00:00 21,3 11,4 24,4 20,1 18,1 16,1 7 4 18 10 NNE 1021,5 42 0,0
14.07.2018 11:00:00 20,2 11,6 23,2 19,0 18,1 16,1 11 6 18 10 NNE 1021,7 34 0,0
14.07.2018 10:00:00 19,3 12,6 20,7 18,2 18,2 16,1 11 6 22 12 NE 1021,8 37 0,0
14.07.2018 09:00:00 17,6 12,5 19,3 17,5 18,3 16,1 11 6 14 8 ENE 1021,9 40 0,0
14.07.2018 08:00:00 15,8 12,5 16,7 17,0 18,5 16,1 7 4 11 6 ENE 1021,7 27 0,0
14.07.2018 07:00:00 13,7 12,0 12,2 17,0 18,6 16,1 4 2 7 4 ENE 1021,4 16 0,0
14.07.2018 06:00:00 10,9 10,2 8,7 17,4 18,7 16,1 4 2 7 4 N 1021,5 16 0,0
14.07.2018 05:00:00 13,1 11,7 11,6 17,8 18,8 16,1 7 4 11 6 NNE 1021,6 22 0,0
14.07.2018 04:00:00 13,4 11,9 12,1 18,2 18,9 16,1 7 4 14 8 N 1021,5 27 0,0
14.07.2018 03:00:00 13,6 12,0 11,9 18,8 19,0 16,1 7 4 11 6 NE 1021,4 32 0,0
14.07.2018 02:00:00 14,9 12,2 13,8 19,2 19,1 16,1 7 4 14 8 NNE 1021,7 43 0,0
14.07.2018 01:00:00 15,4 12,7 14,4 19,7 19,2 16,1 7 4 14 8 NNE 1021,6 49 0,0
14.07.2018 00:00:00 16,5 13,3 15,4 20,2 19,2 16,1 7 4 18 10 NNE 1021,5 48 0,0
13.07.2018 23:00:00 17,2 13,3 16,2 20,8 19,2 16,1 7 4 18 10 N 1021,2 50 0,0
13.07.2018 22:00:00 18,1 13,3 17,4 21,5 19,2 16,1 11 6 22 12 NNE 1021,0 45 0,0
13.07.2018 21:00:00 19,9 12,6 19,5 22,3 19,1 16,1 11 6 22 12 NNE 1020,7 44 0,0
13.07.2018 20:00:00 20,6 13,0 21,1 23,0 18,9 16,1 14 8 25 14 NE 1020,5 36 0,0
13.07.2018 19:00:00 22,1 13,1 23,6 23,6 18,8 16,1 14 8 25 14 N 1020,5 32 0,0
13.07.2018 18:00:00 23,3 13,6 25,3 24,0 18,6 16,1 18 10 25 14 NNW 1020,6 35 0,0
13.07.2018 17:00:00 23,9 12,9 26,4 24,0 18,4 16,1 11 6 18 10 NW 1020,8 32 0,0
13.07.2018 16:00:00 24,1 13,0 26,6 23,7 18,2 16,0 14 8 25 14 NNW 1021,1 38 0,0
13.07.2018 15:00:00 23,9 13,5 26,8 23,0 18,1 16,0 11 6 25 14 NNW 1021,1 43 0,0
13.07.2018 14:00:00 23,1 13,7 26,3 22,1 18,0 16,0 11 6 22 12 NW 1021,5 36 0,0
13.07.2018 13:00:00 22,3 13,0 25,4 20,9 17,9 16,0 7 4 18 10 NNW 1021,9 35 0,0
13.07.2018 12:00:00 20,5 12,5 23,7 19,6 17,9 16,0 7 4 14 8 N 1022,0 40 0,0
13.07.2018 11:00:00 19,4 13,5 21,9 18,7 17,9 16,0 11 6 18 10 N 1021,9 35 0,0
13.07.2018 10:00:00 18,3 13,6 19,8 18,0 18,0 16,0 7 4 14 8 N 1022,0 27 0,0
13.07.2018 09:00:00 17,4 14,0 18,1 17,4 18,1 16,0 7 4 14 8 NNW 1021,8 25 0,0
13.07.2018 08:00:00 16,1 14,3 16,1 17,0 18,2 16,0 7 4 11 6 NW 1021,6 18 0,0
13.07.2018 07:00:00 14,7 13,7 14,3 16,9 18,3 16,1 4 2 11 6 NW 1021,4 14 0,0
13.07.2018 06:00:00 13,8 13,2 12,9 17,0 18,5 16,0 4 2 11 6 NW 1021,4 12 0,0
13.07.2018 05:00:00 12,8 12,4 10,0 17,3 18,6 16,1 4 2 7 4 NNW 1021,1 10 0,0
13.07.2018 04:00:00 13,0 12,7 10,2 17,8 18,7 16,1 7 4 11 6 NW 1021,1 12 0,0
13.07.2018 03:00:00 13,8 13,1 11,7 18,2 18,8 16,1 7 4 11 6 NW 1021,1 16 0,0
13.07.2018 02:00:00 13,7 13,0 12,3 18,8 18,9 16,1 7 4 7 4 NW 1021,0 15 0,0
13.07.2018 01:00:00 14,9 13,4 13,8 19,4 18,9 16,1 7 4 11 6 NW 1021,1 21 0,0
13.07.2018 00:00:00 15,8 13,4 15,0 19,9 18,9 16,1 11 6 18 10 NNW 1021,1 25 0,0
12.07.2018 23:00:00 16,7 13,2 15,9 20,6 18,9 16,1 7 4 18 10 NNW 1020,9 34 0,0
12.07.2018 22:00:00 18,1 13,1 17,5 21,3 18,9 16,1 14 8 25 14 NNW 1020,5 43 0,0
12.07.2018 21:00:00 20,0 13,3 19,7 22,0 18,8 16,1 14 8 25 14 N 1020,0 37 0,0
12.07.2018 20:00:00 21,8 13,5 22,3 22,6 18,6 16,1 14 8 29 16 NNW 1019,8 36 0,0
12.07.2018 19:00:00 22,8 13,8 24,0 23,2 18,5 16,1 18 10 25 14 NNW 1019,3 33 0,0
12.07.2018 18:00:00 23,7 14,4 25,8 23,4 18,3 16,1 14 8 25 14 NW 1019,3 36 0,0
12.07.2018 17:00:00 24,2 14,2 26,6 23,4 18,1 16,1 14 8 25 14 NNW 1019,3 32 0,0
12.07.2018 16:00:00 24,3 13,3 27,0 23,2 17,9 16,1 14 8 32 18 NNW 1019,5 30 0,0
12.07.2018 15:00:00 24,0 13,9 26,9 22,5 17,8 16,1 14 8 29 16 NW 1019,5 26 0,0
12.07.2018 14:00:00 23,5 13,3 27,0 21,5 17,6 16,1 14 8 25 14 N 1019,7 30 0,0
12.07.2018 13:00:00 22,1 14,1 25,0 20,5 17,6 16,1 14 8 25 14 NNW 1019,9 37 0,0
12.07.2018 12:00:00 20,3 13,9 22,6 19,7 17,5 16,1 11 6 22 12 NW 1020,0 31 0,0
12.07.2018 11:00:00 19,4 14,2 22,4 18,8 17,5 16,1 14 8 22 12 NNW 1019,9 28 0,0
12.07.2018 10:00:00 18,3 13,9 20,5 17,9 17,5 16,1 11 6 22 12 N 1019,9 28 0,0
12.07.2018 09:00:00 16,8 13,9 17,8 17,4 17,6 16,1 14 8 25 14 NNW 1019,4 22 0,0
12.07.2018 08:00:00 16,3 14,6 16,6 17,2 17,7 16,1 14 8 25 14 N 1018,9 14 0,0
12.07.2018 07:00:00 15,6 14,7 15,4 17,1 17,7 16,1 11 6 14 8 NW 1018,8 8 0,0
12.07.2018 06:00:00 15,7 14,8 15,3 17,2 17,8 16,1 7 4 22 12 NNW 1018,6 8 0,0
12.07.2018 05:00:00 15,5 14,8 15,2 17,2 17,8 16,1 11 6 18 10 NNW 1018,5 8 0,0
12.07.2018 04:00:00 15,8 14,9 15,2 17,4 17,9 16,1 11 6 22 12 NNW 1018,4 10 0,0
12.07.2018 03:00:00 15,8 15,1 15,2 17,6 18,0 16,1 11 6 18 10 NW 1018,6 8 0,0
12.07.2018 02:00:00 16,0 15,2 15,3 17,9 18,0 16,1 11 6 14 8 NNW 1018,6 9 0,0
12.07.2018 01:00:00 16,0 15,1 14,9 18,3 18,0 16,1 7 4 11 6 NW 1018,7 11 0,0
12.07.2018 00:00:00 16,8 15,2 16,1 18,6 18,0 16,1 7 4 18 10 NNW 1018,6 16 0,0
11.07.2018 23:00:00 17,6 15,0 16,8 19,1 18,0 16,1 7 4 18 10 NW 1018,6 24 0,0
11.07.2018 22:00:00 18,6 14,5 18,0 19,5 18,0 16,1 11 6 22 12 NNW 1018,4 29 0,0
11.07.2018 21:00:00 19,8 14,1 19,3 20,0 17,9 16,1 14 8 25 14 N 1018,0 39 0,0
11.07.2018 20:00:00 21,7 12,7 22,0 20,3 17,8 16,1 14 8 29 16 NNW 1017,7 38 0,0
11.07.2018 19:00:00 21,9 12,0 22,5 20,5 17,7 16,1 18 10 32 18 N 1017,5 32 0,0
11.07.2018 18:00:00 22,0 11,7 23,0 20,5 17,5 16,1 22 12 36 19 N 1017,6 37 0,0
11.07.2018 17:00:00 21,7 12,8 23,1 20,3 17,4 16,1 22 12 40 21 NNW 1017,8 29 0,0
11.07.2018 16:00:00 21,0 13,3 21,3 19,8 17,3 16,1 14 8 29 16 NNW 1018,4 40 0,0
11.07.2018 15:00:00 20,4 12,8 20,8 19,7 17,2 16,1 18 10 29 16 N 1018,4 39 0,0
11.07.2018 14:00:00 22,5 12,9 23,6 19,0 17,2 16,1 18 10 36 19 NW 1018,2 37 0,0
11.07.2018 13:00:00 20,4 12,6 21,9 18,4 17,1 16,1 14 8 25 14 NNW 1018,6 37 0,0

tt = Température de l'air
td = dewpoint
tt 5cm = Température de l'air 5cm
tt -5cm = Température de l'air -5cm
tt -20cm = Température de l'air -20cm
tt -100cm = Température de l'air -100cm
ff = Vitesse du vent
fx = gusts
dd = Direction du vent
ppp = reduced air pressure
vv = visibility
rr = Quantités de précipitations

stations d'obs. à proximité